Location: State Camp
(41.2367°N, 77.7828°W)
Time: 13:29:16
(UTC-04:00)

Amateur Radio Satellites - All Passes

Search period start: 20 April 2014 12:59
Search period end: 21 April 2014 12:59
Location: State Camp, 41.2367°N, 77.7828°W

Satellite Date Start Highest point End Downlink Frequencies (MHz)
Time Altitude Azimuth
FUNcube-1 20 Apr 13:02:59 13:05:43 17° 294° (WNW) 13:08:29 145.950 - 145.970 MHz USB
AO-27 20 Apr 13:28:59 13:33:12 26° 65° (ENE) 13:37:26 436.795 MHz FM
AO-Echo 20 Apr 13:36:35 13:40:39 24° 66° (ENE) 13:44:40 ?
ITAMSAT 1 20 Apr 13:39:05 13:43:35 31° 67° (ENE) 13:48:05 435.822 SSB
Oscar 19 20 Apr 13:41:00 13:46:02 59° 72° (ENE) 13:51:07 437.125 CW, 437.150 USB
Oscar 16 20 Apr 13:49:22 13:54:29 76° 74° (ENE) 13:59:40 437.025 USB, Beacon 2401.1428
AO-7 20 Apr 14:07:38 14:08:07 10° 40° (NE) 14:08:36 29.400 - 29.500 MHz
KITSAT 1 20 Apr 14:08:24 14:14:26 24° 256° (WSW) 14:20:27 435.175 FM
TMSAT-1 20 Apr 14:15:43 14:18:51 16° 61° (ENE) 14:21:58 436.925 FM
Uribyol 2 20 Apr 14:26:26 14:31:36 88° 75° (ENE) 14:36:48 436.500 FM
RS-15 20 Apr 14:32:49 14:42:42 37° 37° (NE) 14:52:41 29.354 - 29.394 USB, Beacon 29.352 USB
OPAL 20 Apr 14:51:23 14:54:29 16° 93° (E) 14:57:34 ?
ISS 20 Apr 15:00:04 15:03:06 33° 136° (SE) 15:06:10 145.800 FM
Gurwin Techsat 1B 20 Apr 15:05:25 15:10:38 61° 73° (ENE) 15:15:52 435.225 FM
Oscar 10/S400 20 Apr 15:06:48 16:03:28 15° 273° (W) 17:29:12 145.825 - 145.975 CW/USB, Beacon 145.810 USB
AO-27 20 Apr 15:07:39 15:12:30 40° 262° (W) 15:17:23 436.795 MHz FM
AO-Echo 20 Apr 15:14:10 15:19:10 44° 261° (W) 15:24:04 ?
ITAMSAT 1 20 Apr 15:18:23 15:23:00 32° 263° (W) 15:27:39 435.822 SSB
Oscar 19 20 Apr 15:22:35 15:25:46 17° 269° (W) 15:29:00 437.125 CW, 437.150 USB
Oscar 16 20 Apr 15:32:18 15:34:25 12° 271° (W) 15:36:33 437.025 USB, Beacon 2401.1428
Uosat F 20 Apr 15:34:09 15:38:29 30° 67° (ENE) 15:42:50 435.120 FM
SO-50 20 Apr 15:37:25 15:41:48 57° 119° (ESE) 15:46:13 436.795 FM
JAS-1B 20 Apr 15:37:29 15:45:11 52° 70° (ENE) 15:51:39 435.800 - 435.900 CW/SSB
AO-7 20 Apr 15:51:04 15:58:47 46° 62° (ENE) 16:06:30 29.400 - 29.500 MHz
TMSAT-1 20 Apr 15:52:54 15:58:10 70° 258° (WSW) 16:03:28 436.925 FM
Uribyol 2 20 Apr 16:11:01 16:11:45 10° 272° (W) 16:12:28 436.500 FM
OPAL 20 Apr 16:28:36 16:33:47 65° 289° (WNW) 16:38:56 ?
ISS 20 Apr 16:36:46 16:39:50 33° 334° (NNW) 16:42:56 145.800 FM
RS-15 20 Apr 16:45:11 16:56:06 77° 242° (WSW) 17:07:20 29.354 - 29.394 USB, Beacon 29.352 USB
Gurwin Techsat 1B 20 Apr 16:47:41 16:51:00 17° 269° (W) 16:54:21 435.225 FM
Uosat F 20 Apr 17:12:45 17:17:12 32° 263° (W) 17:21:41 435.120 FM
SO-50 20 Apr 17:19:26 17:22:43 20° 317° (NW) 17:26:02 436.795 FM
JAS-1B 20 Apr 17:29:01 17:35:53 30° 263° (W) 17:41:53 435.800 - 435.900 CW/SSB
Hamsat 20 Apr 17:37:49 17:40:45 19° 66° (ENE) 17:43:43 145.90 MHz
AO-7 20 Apr 17:43:53 17:51:34 42° 261° (W) 17:59:19 29.400 - 29.500 MHz
JAS-2 20 Apr 17:49:38 17:51:40 12° 59° (ENE) 17:53:39 435.800 - 435.900 CW/SSB, 435.910 FM
UOSAT-12 20 Apr 17:53:49 17:58:21 74° 121° (ESE) 18:03:00 437.025 FM, 437.400 FM
ISS 20 Apr 18:15:22 18:17:21 15° 353° (N) 18:19:20 145.800 FM
RS-15 20 Apr 19:00:29 19:06:32 17° 262° (W) 19:12:43 29.354 - 29.394 USB, Beacon 29.352 USB
STRAND 1 20 Apr 19:09:02 19:13:20 27° 95° (E) 19:17:36 ?
Hamsat 20 Apr 19:12:33 19:16:28 38° 263° (W) 19:20:26 145.90 MHz
JAS-2 20 Apr 19:30:17 19:36:08 90° 113° (ESE) 19:41:29 435.800 - 435.900 CW/SSB, 435.910 FM
Saudisat 1A 20 Apr 19:33:58 19:38:11 41° 51° (NE) 19:42:19 436.775 MHz
UOSAT-12 20 Apr 19:36:00 19:39:03 17° 320° (NW) 19:42:09 437.025 FM, 437.400 FM
SO-67 20 Apr 19:47:42 19:51:11 77° 258° (WSW) 19:54:41 435.3500 MHz FM
ISS 20 Apr 19:52:44 19:55:05 18° 14° (NNE) 19:57:27 145.800 FM
STRAND 1 20 Apr 20:47:57 20:52:34 36° 292° (WNW) 20:57:10 ?
HO-68 20 Apr 20:48:53 20:55:40 49° 66° (ENE) 21:02:28 435.675 MHz FM
Oscar 11 20 Apr 20:54:22 20:56:22 13° 63° (ENE) 20:58:23 145.825 FM, Beacon 2401.500 USB
Saudisat 1A 20 Apr 21:14:11 21:17:30 21° 248° (WSW) 21:20:48 436.775 MHz
JAS-2 20 Apr 21:20:59 21:21:49 10° 270° (W) 21:22:38 435.800 - 435.900 CW/SSB, 435.910 FM
ISS 20 Apr 21:29:01 21:32:21 61° 33° (NNE) 21:35:40 145.800 FM
MaSat-1 20 Apr 22:19:16 22:21:49 29° 299° (WNW) 22:24:08 437.345 MHz
FUNcube-1 20 Apr 22:22:29 22:26:18 35° 71° (ENE) 22:30:05 145.950 - 145.970 MHz USB
Oscar 11 20 Apr 22:27:48 22:32:03 60° 259° (W) 22:36:21 145.825 FM, Beacon 2401.500 USB
HO-68 20 Apr 22:37:18 22:43:32 32° 264° (W) 22:49:49 435.675 MHz FM
ISS 20 Apr 23:06:39 23:08:45 16° 229° (SW) 23:10:51 145.800 FM
Sapphire 20 Apr 23:53:23 23:57:38 24° 107° (ESE) 00:01:53 437.095 MHz 1200 baud AX-25 AFSK
FUNcube-1 20 Apr 23:59:52 00:02:50 19° 267° (W) 00:05:47 145.950 - 145.970 MHz USB
SO-50 21 Apr 00:08:59 00:13:32 52° 53° (NE) 00:18:08 436.795 FM
PCSat 21 Apr 00:36:48 00:42:06 62° 115° (ESE) 00:47:28 145.825 MHz
UOSAT-12 21 Apr 00:45:17 00:47:05 12° 35° (NE) 00:48:51 437.025 FM, 437.400 FM
Oscar 10/S400 21 Apr 01:09:41 01:18:27 13° 129° (SE) 01:29:47 145.825 - 145.975 CW/USB, Beacon 145.810 USB
Sapphire 21 Apr 01:35:30 01:40:43 48° 305° (NW) 01:45:59 437.095 MHz 1200 baud AX-25 AFSK
SO-50 21 Apr 01:50:30 01:53:44 19° 249° (WSW) 01:57:00 436.795 FM
Oscar 19 21 Apr 01:53:27 01:57:21 21° 93° (E) 02:01:14 437.125 CW, 437.150 USB
Oscar 16 21 Apr 02:01:39 02:06:02 27° 95° (E) 02:10:24 437.025 USB, Beacon 2401.1428
OPAL 21 Apr 02:05:49 02:10:05 28° 64° (ENE) 02:14:25 ?
PCSat 21 Apr 02:21:46 02:25:57 22° 314° (NW) 02:30:10 145.825 MHz
UOSAT-12 21 Apr 02:23:29 02:28:11 63° 55° (NE) 02:32:50 437.025 FM, 437.400 FM
Uribyol 2 21 Apr 02:39:35 02:44:11 31° 96° (E) 02:48:45 436.500 FM
KITSAT 1 21 Apr 02:39:38 02:47:24 53° 112° (ESE) 02:55:13 435.175 FM
AO-27 21 Apr 03:20:15 03:25:27 74° 103° (ESE) 03:30:37 436.795 MHz FM
AO-Echo 21 Apr 03:21:27 03:26:11 60° 101° (E) 03:30:48 ?
Gurwin Techsat 1B 21 Apr 03:22:17 03:26:34 24° 94° (E) 03:30:50 435.225 FM
Sapphire 21 Apr 03:25:21 03:25:32 10° 326° (NW) 03:25:43 437.095 MHz 1200 baud AX-25 AFSK
ITAMSAT 1 21 Apr 03:30:32 03:35:45 89° 105° (ESE) 03:40:55 435.822 SSB
Oscar 19 21 Apr 03:31:56 03:36:55 47° 289° (WNW) 03:41:53 437.125 CW, 437.150 USB
Oscar 16 21 Apr 03:40:41 03:45:26 37° 291° (WNW) 03:50:11 437.025 USB, Beacon 2401.1428
OPAL 21 Apr 03:44:15 03:48:50 35° 261° (W) 03:53:30 ?
AO-7 21 Apr 03:55:57 03:58:35 12° 87° (E) 04:01:13 29.400 - 29.500 MHz
UOSAT-12 21 Apr 04:05:06 04:07:49 15° 251° (WSW) 04:10:30 437.025 FM, 437.400 FM
TMSAT-1 21 Apr 04:08:52 04:13:58 47° 99° (E) 04:19:02 436.925 FM
Uribyol 2 21 Apr 04:19:03 04:23:36 32° 293° (WNW) 04:28:09 436.500 FM
KITSAT 1 21 Apr 04:35:31 04:43:01 40° 313° (NW) 04:50:35 435.175 FM
AO-27 21 Apr 05:01:31 05:04:20 15° 300° (WNW) 05:07:10 436.795 MHz FM
Gurwin Techsat 1B 21 Apr 05:01:42 05:06:41 42° 290° (WNW) 05:11:38 435.225 FM
AO-Echo 21 Apr 05:01:44 05:04:26 15° 298° (WNW) 05:07:08 ?
RS-15 21 Apr 05:02:44 05:08:22 15° 97° (E) 05:13:54 29.354 - 29.394 USB, Beacon 29.352 USB
JAS-1B 21 Apr 05:12:27 05:18:08 78° 104° (ESE) 05:24:07 435.800 - 435.900 CW/SSB
ITAMSAT 1 21 Apr 05:12:27 05:14:28 12° 302° (WNW) 05:16:29 435.822 SSB
Uosat F 21 Apr 05:19:44 05:24:46 79° 104° (ESE) 05:29:45 435.120 FM
AO-7 21 Apr 05:44:28 05:52:47 69° 105° (ESE) 06:01:04 29.400 - 29.500 MHz
TMSAT-1 21 Apr 05:49:30 05:53:34 23° 296° (WNW) 05:57:38 436.925 FM
STRAND 1 21 Apr 06:24:54 06:29:37 40° 69° (ENE) 06:34:22 ?
KITSAT 1 21 Apr 06:37:08 06:41:07 14° 340° (NNW) 06:45:07 435.175 FM
MaSat-1 21 Apr 06:41:37 06:44:24 34° 62° (ENE) 06:47:37 437.345 MHz
AO-40 21 Apr 06:48:12 10:15:26 25° 139° (SE) 11:45:17 Beacon 2401.320
Hamsat 21 Apr 06:58:12 07:02:15 37° 97° (E) 07:06:17 145.90 MHz
Uosat F 21 Apr 07:00:34 07:02:53 13° 300° (WNW) 07:05:11 435.120 FM
JAS-1B 21 Apr 07:05:17 07:08:10 14° 302° (WNW) 07:11:04 435.800 - 435.900 CW/SSB
RS-15 21 Apr 07:07:26 07:18:42 73° 117° (ESE) 07:29:37 29.354 - 29.394 USB, Beacon 29.352 USB
AO-7 21 Apr 07:38:10 07:44:55 29° 304° (NW) 07:51:42 29.400 - 29.500 MHz
PCSat 21 Apr 07:44:40 07:45:17 10° 34° (NE) 07:45:53 145.825 MHz
STRAND 1 21 Apr 08:04:48 08:08:55 24° 265° (W) 08:13:04 ?
MaSat-1 21 Apr 08:21:21 08:22:39 12° 251° (WSW) 08:24:01 437.345 MHz
JAS-2 21 Apr 08:22:58 08:28:26 79° 103° (ESE) 08:34:29 435.800 - 435.900 CW/SSB, 435.910 FM
Hamsat 21 Apr 08:34:47 08:37:59 20° 293° (WNW) 08:41:12 145.90 MHz
KITSAT 1 21 Apr 08:38:16 08:40:58 12° 12° (NNE) 08:43:40 435.175 FM
Sapphire 21 Apr 08:40:38 08:44:52 23° 46° (NE) 08:49:05 437.095 MHz 1200 baud AX-25 AFSK
SO-67 21 Apr 08:45:19 08:48:47 60° 284° (WNW) 08:52:14 435.3500 MHz FM
RS-15 21 Apr 09:21:48 09:31:58 38° 322° (NW) 09:41:59 29.354 - 29.394 USB, Beacon 29.352 USB
PCSat 21 Apr 09:24:47 09:30:04 49° 56° (NE) 09:35:18 145.825 MHz
PANSAT 21 Apr 09:29:50 09:31:23 12° 176° (S) 09:32:55 not established
Saudisat 1A 21 Apr 09:44:43 09:45:05 10° 107° (ESE) 09:45:26 436.775 MHz
HO-68 21 Apr 10:03:45 10:10:43 50° 101° (E) 10:17:38 435.675 MHz FM
JAS-2 21 Apr 10:10:07 10:13:01 15° 299° (WNW) 10:16:01 435.800 - 435.900 CW/SSB, 435.910 FM
Oscar 11 21 Apr 10:16:00 10:19:34 24° 95° (E) 10:23:07 145.825 FM, Beacon 2401.500 USB
Sapphire 21 Apr 10:23:22 10:28:42 61° 245° (WSW) 10:34:00 437.095 MHz 1200 baud AX-25 AFSK
KITSAT 1 21 Apr 10:32:52 10:39:43 29° 40° (NE) 10:46:31 435.175 FM
PCSat 21 Apr 11:08:55 11:13:08 24° 253° (WSW) 11:17:21 145.825 MHz
PANSAT 21 Apr 11:10:00 11:10:49 11° 189° (S) 11:11:37 not established
Saudisat 1A 21 Apr 11:19:31 11:24:00 83° 303° (WNW) 11:28:29 436.775 MHz
RS-15 21 Apr 11:41:08 11:48:43 20° 356° (N) 11:56:16 29.354 - 29.394 USB, Beacon 29.352 USB
FUNcube-1 21 Apr 11:47:21 11:51:38 79° 102° (ESE) 11:56:01 145.950 - 145.970 MHz USB
HO-68 21 Apr 11:51:55 11:58:08 33° 298° (WNW) 12:04:20 435.675 MHz FM
Oscar 11 21 Apr 11:51:57 11:55:45 30° 291° (WNW) 11:59:33 145.825 FM, Beacon 2401.500 USB
KITSAT 1 21 Apr 12:27:51 12:35:58 79° 242° (WSW) 12:44:00 435.175 FM
